Date,Installs,Update checks
2018-09-07,1,0
2018-09-08,16,0
2018-09-09,5,1
2018-09-10,6,3
2018-09-11,10,5
2018-09-12,10,7
2018-09-13,6,14
2018-09-14,8,10
2018-09-15,3,8
2018-09-16,8,12
2018-09-17,5,15
2018-09-18,3,12
2018-09-19,4,17
2018-09-20,5,15
2018-09-21,4,19
2018-09-22,4,10
2018-09-23,5,16
2018-09-24,1,17
2018-09-25,1,16
2018-09-26,4,23
2018-09-27,5,18
2018-09-28,8,26
2018-09-29,20,15
2018-09-30,11,32
2018-10-01,9,37
2018-10-02,6,32
2018-10-03,7,37
2018-10-04,2,35
2018-10-05,9,35
2018-10-06,14,50
2018-10-07,8,43
2018-10-08,6,39
2018-10-09,9,49
2018-10-10,4,52
2018-10-11,1,44
2018-10-12,7,49
2018-10-13,12,41
2018-10-14,7,44
2018-10-15,4,50
2018-10-16,9,54
2018-10-17,7,49
2018-10-18,4,56
2018-10-19,2,62
2018-10-20,11,53
2018-10-21,11,61
2018-10-22,9,70
2018-10-23,5,61
2018-10-24,11,64
2018-10-25,7,74
2018-10-26,10,62
2018-10-27,13,65
2018-10-28,8,62
2018-10-29,8,78
2018-10-30,5,66
2018-10-31,4,76
2018-11-01,12,71
2018-11-02,7,79
2018-11-03,12,84
2018-11-04,5,74
2018-11-05,5,91
2018-11-06,4,91
2018-11-07,8,83
2018-11-08,3,88
2018-11-09,3,77
2018-11-10,5,86
2018-11-11,3,85
2018-11-12,2,113
2018-11-13,2,89
2018-11-14,0,88
2018-11-15,9,96
2018-11-16,3,90
2018-11-17,3,75
2018-11-18,7,96
2018-11-19,4,88
2018-11-20,3,98
2018-11-21,6,99
2018-11-22,5,91
2018-11-23,4,93
2018-11-24,5,93
2018-11-25,11,97
2018-11-26,4,110
2018-11-27,4,94
2018-11-28,3,105
2018-11-29,3,106
2018-11-30,0,105
2018-12-01,7,103
2018-12-02,5,86
2018-12-03,4,118
2018-12-04,4,105
2018-12-05,4,100
2018-12-06,3,104
2018-12-07,4,107
2018-12-08,8,87
2018-12-09,9,104
2018-12-10,5,125
2018-12-11,3,99
2018-12-12,2,125
2018-12-13,1,103
2018-12-14,2,96
2018-12-15,6,100
2018-12-16,8,117
2018-12-17,2,127
2018-12-18,6,110
2018-12-19,7,128
2018-12-20,2,104
2018-12-21,3,111
2018-12-22,4,107
2018-12-23,7,89
2018-12-24,3,94
2018-12-25,3,94
2018-12-26,1,103
2018-12-27,1,114
2018-12-28,9,103
2018-12-29,8,105
2018-12-30,7,110
2018-12-31,5,92
2019-01-01,5,112
2019-01-02,2,126
2019-01-03,0,119
2019-01-04,9,125
2019-01-05,4,112
2019-01-06,12,115
2019-01-07,2,138
2019-01-08,5,130
2019-01-09,9,150
2019-01-10,3,115
2019-01-11,11,138
2019-01-12,7,122
2019-01-13,7,114
2019-01-14,4,157
2019-01-15,4,134
2019-01-16,3,131
2019-01-17,8,142
2019-01-18,2,133
2019-01-19,4,127
2019-01-20,4,131
2019-01-21,4,157
2019-01-22,6,145
2019-01-23,5,145
2019-01-24,7,145
2019-01-25,4,145
2019-01-26,2,128
2019-01-27,4,135
2019-01-28,8,175
2019-01-29,1,144
2019-01-30,9,150
2019-01-31,10,171
2019-02-01,6,161
2019-02-02,9,136
2019-02-03,7,151
2019-02-04,6,175
2019-02-05,9,158
2019-02-06,7,165
2019-02-07,7,170
2019-02-08,6,163
2019-02-09,11,137
2019-02-10,11,143
2019-02-11,6,171
2019-02-12,10,167
2019-02-13,7,144
2019-02-14,5,178
2019-02-15,2,142
2019-02-16,8,139
2019-02-17,14,165
2019-02-18,4,173
2019-02-19,7,171
2019-02-20,5,180
2019-02-21,5,164
2019-02-22,5,186
2019-02-23,12,150
2019-02-24,8,170
2019-02-25,7,192
2019-02-26,7,178
2019-02-27,9,181
2019-02-28,8,172
2019-03-01,7,184
2019-03-02,7,156
2019-03-03,8,159
2019-03-04,6,205
2019-03-05,7,182
2019-03-06,7,181
2019-03-07,7,199
2019-03-08,7,188
2019-03-09,6,147
2019-03-10,6,176
2019-03-11,6,191
2019-03-12,8,201
2019-03-13,6,205
2019-03-14,5,202
2019-03-15,12,200
2019-03-16,12,171
2019-03-17,6,181
2019-03-18,6,215
2019-03-19,12,217
2019-03-20,19,228
2019-03-21,7,207
2019-03-22,10,204
2019-03-23,11,188
2019-03-24,8,180
2019-03-25,7,231
2019-03-26,3,227
2019-03-27,7,226
2019-03-28,3,221
2019-03-29,3,215
2019-03-30,8,192
2019-03-31,7,189
2019-04-01,8,254
2019-04-02,8,224
2019-04-03,14,230
2019-04-04,2,219
2019-04-05,9,230
2019-04-06,5,217
2019-04-07,6,198
2019-04-08,1,245
2019-04-09,9,211
2019-04-10,2,238
2019-04-11,3,218
2019-04-12,7,217
2019-04-13,7,187
2019-04-14,6,209
2019-04-15,3,229
2019-04-16,6,227
2019-04-17,5,226
2019-04-18,5,233
2019-04-19,1,213
2019-04-20,6,179
2019-04-21,4,172
2019-04-22,3,200
2019-04-23,4,238
2019-04-24,2,223
2019-04-25,10,175
2019-04-26,10,228
2019-04-27,4,178
2019-04-28,7,197
2019-04-29,3,245
2019-04-30,4,209
2019-05-01,4,207
2019-05-02,6,250
2019-05-03,6,222
2019-05-04,13,215
2019-05-05,18,190
2019-05-06,5,227
2019-05-07,10,257
2019-05-08,14,221
2019-05-09,10,231
2019-05-10,6,221
2019-05-11,12,207
2019-05-12,9,214
2019-05-13,10,252
2019-05-14,7,246
2019-05-15,7,258
2019-05-16,3,238
2019-05-17,3,230
2019-05-18,11,221
2019-05-19,5,188
2019-05-20,4,248
2019-05-21,8,247
2019-05-22,5,240
2019-05-23,9,240
2019-05-24,4,215
2019-05-25,9,211
2019-05-26,10,194
2019-05-27,5,259
2019-05-28,8,256
2019-05-29,10,235
2019-05-30,3,244
2019-05-31,6,225
2019-06-01,5,205
2019-06-02,6,194
2019-06-03,8,254
2019-06-04,4,238
2019-06-05,8,257
2019-06-06,5,227
2019-06-07,4,213
2019-06-08,4,199
2019-06-09,7,198
2019-06-10,7,258
2019-06-11,4,226
2019-06-12,2,263
2019-06-13,3,227
2019-06-14,4,242
2019-06-15,5,205
2019-06-16,3,194
2019-06-17,2,219
2019-06-18,4,239
2019-06-19,5,219
2019-06-20,4,244
2019-06-21,8,217
2019-06-22,3,177
2019-06-23,5,183
2019-06-24,5,239
2019-06-25,6,222
2019-06-26,3,220
2019-06-27,2,221
2019-06-28,1,184
2019-06-29,5,188
2019-06-30,3,178
2019-07-01,3,233
2019-07-02,0,219
2019-07-03,7,225
2019-07-04,6,222
2019-07-05,3,204
2019-07-06,7,175
2019-07-07,3,164
2019-07-08,2,232
2019-07-09,6,211
2019-07-10,2,200
2019-07-11,4,213
2019-07-12,3,191
2019-07-13,5,171
2019-07-14,5,209
2019-07-15,7,227
2019-07-16,3,218
2019-07-17,3,218
2019-07-18,6,214
2019-07-19,3,190
2019-07-20,1,180
2019-07-21,4,172
2019-07-22,5,221
2019-07-23,5,209
2019-07-24,4,212
2019-07-25,3,229
2019-07-26,4,198
2019-07-27,5,175
2019-07-28,2,190
2019-07-29,6,236
2019-07-30,6,210
2019-07-31,1,216
2019-08-01,1,202
2019-08-02,3,217
2019-08-03,5,177
2019-08-04,3,186
2019-08-05,4,221
2019-08-06,2,195
2019-08-07,8,200
2019-08-08,3,214
2019-08-09,5,189
2019-08-10,3,187
2019-08-11,2,170
2019-08-12,3,172
2019-08-13,3,184
2019-08-14,4,183
2019-08-15,5,167
2019-08-16,2,192
2019-08-17,3,167
2019-08-18,2,172
2019-08-19,4,202
2019-08-20,3,200
2019-08-21,6,201
2019-08-22,3,208
2019-08-23,4,198
2019-08-24,3,167
2019-08-25,1,187
2019-08-26,3,223
2019-08-27,4,215
2019-08-28,2,212
2019-08-29,4,219
2019-08-30,3,218
2019-08-31,14,189
2019-09-01,10,206
2019-09-02,3,268
2019-09-03,4,238
2019-09-04,2,243
2019-09-05,4,230
2019-09-06,3,242
2019-09-07,8,199
2019-09-08,8,212
2019-09-09,9,243
2019-09-10,7,247
2019-09-11,8,227
2019-09-12,4,243
2019-09-13,8,233
2019-09-14,4,200
2019-09-15,11,221
2019-09-16,4,278
2019-09-17,3,270
2019-09-18,5,257
2019-09-19,4,242
2019-09-20,6,244
2019-09-21,5,219
2019-09-22,4,212
2019-09-23,7,269
2019-09-24,11,259
2019-09-25,5,238
2019-09-26,3,250
2019-09-27,6,253
2019-09-28,15,199
2019-09-29,9,226
2019-09-30,14,270
2019-10-01,10,280
2019-10-02,9,265
2019-10-03,5,282
2019-10-04,3,262
2019-10-05,10,214
2019-10-06,9,219
2019-10-07,13,311
2019-10-08,11,281
2019-10-09,4,289
2019-10-10,6,296
2019-10-11,6,261
2019-10-12,10,235
2019-10-13,7,239
2019-10-14,7,286
2019-10-15,4,290
2019-10-16,9,285
2019-10-17,6,279
2019-10-18,7,259
2019-10-19,10,234
2019-10-20,7,260
2019-10-21,14,296
2019-10-22,6,280
2019-10-23,5,300
2019-10-24,17,290
2019-10-25,16,289
2019-10-26,53,249
2019-10-27,47,258
2019-10-28,30,341
2019-10-29,12,317
2019-10-30,12,306
2019-10-31,11,267
2019-11-01,18,256
2019-11-02,20,246
2019-11-03,19,267
2019-11-04,12,353
2019-11-05,16,324
2019-11-06,8,324
2019-11-07,11,308
2019-11-08,9,326
2019-11-09,18,276
2019-11-10,19,257
2019-11-11,10,349
2019-11-12,10,325
2019-11-13,13,322
2019-11-14,7,307
2019-11-15,11,302
2019-11-16,17,276
2019-11-17,15,264
2019-11-18,10,348
2019-11-19,6,323
2019-11-20,10,339
2019-11-21,7,314
2019-11-22,7,299
2019-11-23,10,262
2019-11-24,13,286
2019-11-25,7,341
2019-11-26,3,317
2019-11-27,6,327
2019-11-28,10,314
2019-11-29,6,309
2019-11-30,8,276
2019-12-01,8,254
2019-12-02,9,334
2019-12-03,3,305
2019-12-04,6,334
2019-12-05,4,305
2019-12-06,15,311
2019-12-07,7,261
2019-12-08,9,275
2019-12-09,12,362
2019-12-10,9,316
2019-12-11,2,332
2019-12-12,3,305
2019-12-13,4,322
2019-12-14,5,271
2019-12-15,6,274
2019-12-16,7,337
2019-12-17,11,318
2019-12-18,4,305
2019-12-19,7,314
2019-12-20,5,303
2019-12-21,5,269
2019-12-22,5,265
2019-12-23,10,279
2019-12-24,5,244
2019-12-25,6,250
2019-12-26,10,238
2019-12-27,7,304
2019-12-28,4,265
2019-12-29,5,272
2019-12-30,8,297
2019-12-31,8,234
2020-01-01,5,266
2020-01-02,6,312
2020-01-03,3,303
2020-01-04,4,263
2020-01-05,13,266
2020-01-06,7,277
2020-01-07,4,355
2020-01-08,6,316
2020-01-09,5,319
2020-01-10,4,322
2020-01-11,5,260
2020-01-12,4,269
2020-01-13,7,358
2020-01-14,6,333
2020-01-15,10,324
2020-01-16,6,318
2020-01-17,4,328
2020-01-18,9,269
2020-01-19,4,277
2020-01-20,5,325
2020-01-21,5,346
2020-01-22,0,310
2020-01-23,2,310
2020-01-24,10,285
2020-01-25,7,283
2020-01-26,7,263
2020-01-27,6,343
2020-01-28,3,308
2020-01-29,4,306
2020-01-30,1,311
2020-01-31,3,326
2020-02-01,7,263
2020-02-02,8,277
2020-02-03,5,359
2020-02-04,5,335
2020-02-05,8,309
2020-02-06,6,285
2020-02-07,7,330
2020-02-08,6,78
2020-02-09,4,152
2020-02-10,5,369
2020-02-11,3,321
2020-02-12,5,307
2020-02-13,6,318
2020-02-14,4,314
2020-02-15,6,258
2020-02-16,4,289
2020-02-17,2,334
2020-02-18,3,320
2020-02-19,7,325
2020-02-20,4,327
2020-02-21,4,319
2020-02-22,9,285
2020-02-23,3,283
2020-02-24,7,334
2020-02-25,2,331
2020-02-26,5,326
2020-02-27,6,321
2020-02-28,7,327
2020-02-29,11,276
2020-03-01,9,303
2020-03-02,9,365
2020-03-03,7,340
2020-03-04,4,319
2020-03-05,4,323
2020-03-06,11,320
2020-03-07,3,304
2020-03-08,8,281
2020-03-09,8,358
2020-03-10,12,363
2020-03-11,5,360
2020-03-12,7,336
2020-03-13,4,361
2020-03-14,11,305
2020-03-15,4,340
2020-03-16,5,354
2020-03-17,7,364
2020-03-18,9,351
2020-03-19,9,354
2020-03-20,8,369
2020-03-21,10,320
2020-03-22,5,331
2020-03-23,9,361
2020-03-24,7,354
2020-03-25,8,332
2020-03-26,3,370
2020-03-27,6,355
2020-03-28,6,354
2020-03-29,2,290
2020-03-30,10,359
2020-03-31,3,379
2020-04-01,7,364
2020-04-02,6,342
2020-04-03,5,367
2020-04-04,4,343
2020-04-05,7,333
2020-04-06,5,385
2020-04-07,3,364
2020-04-08,4,360
2020-04-09,3,384
2020-04-10,5,332
2020-04-11,5,354
2020-04-12,2,306
2020-04-13,6,345
2020-04-14,5,364
2020-04-15,5,371
2020-04-16,5,350
2020-04-17,4,367
2020-04-18,5,326
2020-04-19,3,320
2020-04-20,3,374
2020-04-21,0,361
2020-04-22,1,361
2020-04-23,4,344
2020-04-24,2,365
2020-04-25,8,330
2020-04-26,8,314
2020-04-27,7,375
2020-04-28,6,371
2020-04-29,3,363
2020-04-30,2,349
2020-05-01,4,330
2020-05-02,3,325
2020-05-03,0,318
2020-05-04,2,336
2020-05-05,2,374
2020-05-06,1,369
2020-05-07,3,343
2020-05-08,5,365
2020-05-09,1,312
2020-05-10,5,303
2020-05-11,7,368
2020-05-12,3,360
2020-05-13,3,370
2020-05-14,4,352
2020-05-15,4,363
2020-05-16,5,353
2020-05-17,4,317
2020-05-18,4,364
2020-05-19,1,381
2020-05-20,5,342
2020-05-21,4,348
2020-05-22,6,350
2020-05-23,3,320
2020-05-24,2,315
2020-05-25,4,386
2020-05-26,8,355
2020-05-27,3,370
2020-05-28,4,356
2020-05-29,5,380
2020-05-30,5,305
2020-05-31,4,318
2020-06-01,4,355
2020-06-02,3,317
2020-06-03,3,367
2020-06-04,7,350
2020-06-05,0,368
2020-06-06,3,290
2020-06-07,6,351
2020-06-08,2,369
2020-06-09,2,351
2020-06-10,4,361
2020-06-11,3,346
2020-06-12,5,335
2020-06-13,2,289
2020-06-14,3,302
2020-06-15,3,368
2020-06-16,3,357
2020-06-17,2,331
2020-06-18,2,330
2020-06-19,6,330
2020-06-20,4,286
2020-06-21,5,299
2020-06-22,2,352
2020-06-23,5,347
2020-06-24,2,339
2020-06-25,4,337
2020-06-26,2,314
2020-06-27,4,284
2020-06-28,2,276
2020-06-29,1,337
2020-06-30,1,324
2020-07-01,1,326
2020-07-02,1,329
2020-07-03,2,330
2020-07-04,2,271
2020-07-05,4,272
2020-07-06,0,319
2020-07-07,0,321
2020-07-08,2,335
2020-07-09,1,313
2020-07-10,2,297
2020-07-11,1,273
2020-07-12,2,283
2020-07-13,0,312
2020-07-14,2,356
2020-07-15,0,311
2020-07-16,2,329
2020-07-17,2,312
2020-07-18,1,275
2020-07-19,0,263
2020-07-20,1,320
2020-07-21,2,317
2020-07-22,0,328
2020-07-23,1,305
2020-07-24,4,333
2020-07-25,0,253
2020-07-26,4,240
2020-07-27,1,320
2020-07-28,1,322
2020-07-29,1,307
2020-07-30,4,297
2020-07-31,2,311
2020-08-01,1,264
2020-08-02,0,272
2020-08-03,2,325
2020-08-04,0,330
2020-08-05,1,275
2020-08-06,6,304
2020-08-07,2,288
2020-08-08,3,334
2020-08-09,3,508
2020-08-10,2,556
2020-08-11,3,564
2020-08-12,1,537
2020-08-13,2,517
2020-08-14,4,526
2020-08-15,1,365
2020-08-16,1,250
2020-08-17,1,289
2020-08-18,2,284
2020-08-19,1,255
2020-08-20,2,299
2020-08-21,3,270
2020-08-22,0,265
2020-08-23,0,275
2020-08-24,3,319
2020-08-25,4,305
2020-08-26,1,303
2020-08-27,0,291
2020-08-28,2,301
2020-08-29,1,279
2020-08-30,3,286
2020-08-31,2,328
2020-09-01,6,343
2020-09-02,2,309
2020-09-03,1,315
2020-09-04,2,323
2020-09-05,1,289
2020-09-06,5,288
2020-09-07,0,356
2020-09-08,4,324
2020-09-09,1,319
2020-09-10,0,312
2020-09-11,2,325
2020-09-12,5,281
2020-09-13,4,288
2020-09-14,3,373
2020-09-15,2,353
2020-09-16,2,333
2020-09-17,3,312
2020-09-18,6,323
2020-09-19,4,271
2020-09-20,4,317
2020-09-21,6,327
2020-09-22,5,343
2020-09-23,1,336
2020-09-24,1,348
2020-09-25,8,317
2020-09-26,8,317
2020-09-27,7,306
2020-09-28,3,360
2020-09-29,2,348
2020-09-30,3,354
2020-10-01,2,303
2020-10-02,1,339
2020-10-03,3,300
2020-10-04,2,311
2020-10-05,1,341
2020-10-06,2,335
2020-10-07,2,336
2020-10-08,4,333
2020-10-09,0,337
2020-10-10,3,303
2020-10-11,2,310
2020-10-12,2,372
2020-10-13,1,355
2020-10-14,2,340
2020-10-15,2,349
2020-10-16,5,333
2020-10-17,4,324
2020-10-18,4,283
2020-10-19,2,360
2020-10-20,2,339
2020-10-21,3,355
2020-10-22,1,344
2020-10-23,2,362
2020-10-24,4,324
2020-10-25,3,328
2020-10-26,2,365
2020-10-27,3,337
2020-10-28,4,349
2020-10-29,2,329
2020-10-30,3,369
2020-10-31,3,314
2020-11-01,2,304
2020-11-02,0,372
2020-11-03,1,337
2020-11-04,2,345
2020-11-05,3,330
2020-11-06,3,352
2020-11-07,3,313
2020-11-08,3,346
2020-11-09,3,357
2020-11-10,2,356
2020-11-11,2,354
2020-11-12,2,345
2020-11-13,3,331
2020-11-14,2,311
2020-11-15,8,318
2020-11-16,4,386
2020-11-17,3,345
2020-11-18,3,350
2020-11-19,3,343
2020-11-20,3,361
2020-11-21,4,342
2020-11-22,1,318
2020-11-23,2,361
2020-11-24,3,357
2020-11-25,2,346
2020-11-26,2,351
2020-11-27,2,353
2020-11-28,6,344
2020-11-29,5,293
2020-11-30,5,374
2020-12-01,0,325
2020-12-02,3,341
2020-12-03,3,352
2020-12-04,1,339
2020-12-05,5,333
2020-12-06,6,312
2020-12-07,3,328
2020-12-08,4,326
2020-12-09,8,357
2020-12-10,0,345
2020-12-11,1,348
2020-12-12,5,330
2020-12-13,2,285
2020-12-14,4,352
2020-12-15,2,369
2020-12-16,4,339
2020-12-17,0,349
2020-12-18,2,330
2020-12-19,3,320
2020-12-20,4,316
2020-12-21,2,347
2020-12-22,2,319
2020-12-23,3,312
2020-12-24,2,303
2020-12-25,2,286
2020-12-26,5,332
2020-12-27,1,342
2020-12-28,6,323
2020-12-29,4,311
2020-12-30,2,334
2020-12-31,0,276
2021-01-01,7,300
2021-01-02,5,331
2021-01-03,1,308
2021-01-04,2,369
2021-01-05,3,341
2021-01-06,1,340
2021-01-07,5,342
2021-01-08,1,337
2021-01-09,3,316
2021-01-10,1,330
2021-01-11,2,376
2021-01-12,1,338
2021-01-13,0,324
2021-01-14,1,355
2021-01-15,2,356
2021-01-16,1,340
2021-01-17,1,295
2021-01-18,3,364
2021-01-19,2,357
2021-01-20,1,364
2021-01-21,2,355
2021-01-22,2,337
2021-01-23,3,338
2021-01-24,2,325
2021-01-25,0,373
2021-01-26,2,347
2021-01-27,2,332
2021-01-28,0,345
2021-01-29,1,349
2021-01-30,0,239
2021-01-31,5,314
2021-02-01,1,347
2021-02-02,1,325
2021-02-03,2,350
2021-02-04,1,335
2021-02-05,0,319
2021-02-06,3,304
2021-02-07,4,321
2021-02-08,0,350
2021-02-09,1,262
2021-02-10,1,260
2021-02-11,1,284
2021-02-12,1,254
2021-02-13,1,208
2021-02-14,1,168
2021-02-15,2,349
2021-02-16,0,323
2021-02-17,1,323
2021-02-18,1,312
2021-02-19,1,316
2021-02-20,4,294
2021-02-21,1,283
2021-02-22,2,314
2021-02-23,0,307
2021-02-24,4,302
2021-02-25,1,315
2021-02-26,2,314
2021-02-27,3,308
2021-02-28,2,283
2021-03-01,0,361
2021-03-02,2,323
2021-03-03,3,325
2021-03-04,0,306
2021-03-05,2,330
2021-03-06,1,294
2021-03-07,0,321
2021-03-08,0,270
2021-03-09,4,237
2021-03-10,1,264
2021-03-11,1,213
2021-03-12,0,256
2021-03-13,0,223
2021-03-14,3,236
2021-03-15,2,245
2021-03-16,0,291
2021-03-17,1,239
2021-03-18,0,229
2021-03-19,1,249
2021-03-20,2,221
2021-03-21,0,180
2021-03-22,0,233
2021-03-23,1,202
2021-03-24,0,202
2021-03-25,3,259
2021-03-26,0,222
2021-03-27,1,198
2021-03-28,1,203
2021-03-29,0,232
2021-03-30,1,208
2021-03-31,1,198
2021-04-01,1,227
2021-04-02,0,203
2021-04-03,1,152
2021-04-04,1,197
2021-04-05,1,169
2021-04-06,2,229
2021-04-07,0,217
2021-04-08,2,256
2021-04-09,0,219
2021-04-10,1,212
2021-04-11,0,234
2021-04-12,0,193
2021-04-13,0,230
2021-04-14,1,222
2021-04-15,2,219
2021-04-16,0,329
2021-04-17,2,295
2021-04-18,1,299
2021-04-19,0,320
2021-04-20,1,328
2021-04-21,0,297
2021-04-22,0,309
2021-04-23,1,311
2021-04-24,0,287
2021-04-25,2,293
2021-04-26,0,327
2021-04-27,0,302
2021-04-28,0,325
2021-04-29,1,305
2021-04-30,0,308
2021-05-01,0,270
2021-05-02,4,306
2021-05-03,2,302
2021-05-04,1,334
2021-05-05,2,321
2021-05-06,0,304
2021-05-07,0,304
2021-05-08,0,290
2021-05-09,0,265
2021-05-10,1,344
2021-05-11,1,318
2021-05-12,2,318
2021-05-13,2,306
2021-05-14,0,320
2021-05-15,0,272
2021-05-16,1,288
2021-05-17,0,337
2021-05-18,0,333
2021-05-19,0,322
2021-05-20,1,299
2021-05-21,1,310
2021-05-22,0,288
2021-05-23,0,294
2021-05-24,0,314
2021-05-25,0,321
2021-05-26,0,313
2021-05-27,0,302
2021-05-28,0,310
2021-05-29,1,266
2021-05-30,1,274
2021-05-31,0,296
2021-06-01,0,297
2021-06-02,1,267
2021-06-03,1,317
2021-06-04,1,277
2021-06-05,0,214
2021-06-06,1,280
2021-06-07,0,299
2021-06-08,0,301
2021-06-09,2,309
2021-06-10,1,288
2021-06-11,1,291
2021-06-12,1,287
2021-06-13,3,263
2021-06-14,0,317
2021-06-15,1,305
2021-06-16,0,289
2021-06-17,2,301
2021-06-18,0,305
2021-06-19,0,242
2021-06-20,1,260
2021-06-21,0,310
2021-06-22,0,294
2021-06-23,0,285
2021-06-24,0,283
2021-06-25,0,292
2021-06-26,0,250
2021-06-27,1,245
2021-06-28,1,313
2021-06-29,3,296
2021-06-30,0,307
2021-07-01,0,294
2021-07-02,0,261
2021-07-03,0,247
2021-07-04,0,243
2021-07-05,2,299
2021-07-06,0,279
2021-07-07,1,273
2021-07-08,1,285
2021-07-09,0,286
2021-07-10,0,238
2021-07-11,1,218
2021-07-12,0,288
2021-07-13,0,269
2021-07-14,1,281
2021-07-15,0,286
2021-07-16,0,272
2021-07-17,1,253
2021-07-18,1,7
2021-07-19,1,125
2021-07-20,0,283
2021-07-21,0,259
2021-07-22,1,276
2021-07-23,1,247
2021-07-24,0,253
2021-07-25,0,236
2021-07-26,0,291
2021-07-27,0,309
2021-07-28,0,260
2021-07-29,1,262
2021-07-30,0,276
2021-07-31,0,230
2021-08-01,1,234
2021-08-02,1,279
2021-08-03,2,293
2021-08-04,1,257
2021-08-05,1,248
2021-08-06,1,257
2021-08-07,2,237
2021-08-08,0,222
2021-08-09,0,248
2021-08-10,1,245
2021-08-11,0,240
2021-08-12,0,217
2021-08-13,0,224
2021-08-14,0,197
2021-08-15,0,208
2021-08-16,2,226
2021-08-17,1,232
2021-08-18,0,227
2021-08-19,0,236
2021-08-20,0,231
2021-08-21,0,240
2021-08-22,1,226
2021-08-23,0,261
2021-08-24,0,263
2021-08-25,0,261
2021-08-26,1,260
2021-08-27,1,246
2021-08-28,0,229
2021-08-29,1,228
2021-08-30,1,282
2021-08-31,0,286
2021-09-01,0,280
2021-09-02,0,256
2021-09-03,0,251
2021-09-04,0,251
2021-09-05,1,224
2021-09-06,0,267
2021-09-07,1,246
2021-09-08,0,263
2021-09-09,0,256
2021-09-10,1,254
2021-09-11,0,237
2021-09-12,0,246
2021-09-13,0,263
2021-09-14,1,276
2021-09-15,0,273
2021-09-16,0,281
2021-09-17,1,261
2021-09-18,0,234
2021-09-19,0,235
2021-09-20,1,288
2021-09-21,0,285
2021-09-22,0,251
2021-09-23,2,273
2021-09-24,0,264
2021-09-25,2,233
2021-09-26,0,236
2021-09-27,0,287
2021-09-28,0,276
2021-09-29,1,253
2021-09-30,0,280
2021-10-01,0,270
2021-10-02,0,229
2021-10-03,1,219
2021-10-04,1,283
2021-10-05,2,276
2021-10-06,1,258
2021-10-07,0,260
2021-10-08,0,249
2021-10-09,1,244
2021-10-10,0,231
2021-10-11,1,282
2021-10-12,0,276
2021-10-13,1,262
2021-10-14,1,264
2021-10-15,0,267
2021-10-16,0,248
2021-10-17,3,245
2021-10-18,0,261
2021-10-19,0,258
2021-10-20,0,251
2021-10-21,0,271
2021-10-22,1,287
2021-10-23,0,223
2021-10-24,1,246
2021-10-25,1,280
2021-10-26,0,270
2021-10-27,1,255
2021-10-28,0,262
2021-10-29,0,269
2021-10-30,1,251
2021-10-31,0,225
2021-11-01,3,266
2021-11-02,2,271
2021-11-03,1,267
2021-11-04,1,286
2021-11-05,0,251
2021-11-06,0,251
2021-11-07,2,246
2021-11-08,0,283
2021-11-09,2,268
2021-11-10,0,288
2021-11-11,2,269
2021-11-12,0,241
2021-11-13,0,242
2021-11-14,1,241
2021-11-15,0,271
2021-11-16,0,257
2021-11-17,2,270
2021-11-18,0,269
2021-11-19,1,261
2021-11-20,0,239
2021-11-21,1,249
2021-11-22,0,260
2021-11-23,4,274
2021-11-24,2,248
2021-11-25,0,262
2021-11-26,1,251
2021-11-27,2,234
2021-11-28,3,226
2021-11-29,0,266
2021-11-30,1,286
2021-12-01,1,250
2021-12-02,2,263
2021-12-03,0,280
2021-12-04,2,237
2021-12-05,0,240
2021-12-06,0,254
2021-12-07,1,250
2021-12-08,0,246
2021-12-09,1,279
2021-12-10,0,257
2021-12-11,2,235
2021-12-12,3,236
2021-12-13,0,258
2021-12-14,0,262
2021-12-15,2,252
2021-12-16,0,242
2021-12-17,3,251
2021-12-18,0,225
2021-12-19,0,230
2021-12-20,1,249
2021-12-21,3,260
2021-12-22,1,253
2021-12-23,0,234
2021-12-24,1,206
2021-12-25,0,186
2021-12-26,2,218
2021-12-27,0,242
2021-12-28,0,242
2021-12-29,0,230
2021-12-30,1,238
2021-12-31,1,229
2022-01-01,1,212
2022-01-02,1,229
2022-01-03,0,252
2022-01-04,1,258
2022-01-05,3,245
2022-01-06,0,229
2022-01-07,1,226
2022-01-08,1,237
2022-01-09,0,6
2022-01-10,0,0
2022-01-11,2,288
2022-01-12,0,259
2022-01-13,2,256
2022-01-14,3,255
2022-01-15,1,235
2022-01-16,0,236
2022-01-17,1,258
2022-01-18,0,245
2022-01-19,2,265
2022-01-20,1,242
2022-01-21,0,242
2022-01-22,0,232
2022-01-23,0,229
2022-01-24,0,253
2022-01-25,0,242
2022-01-26,0,242
2022-01-27,0,220
2022-01-28,0,250
2022-01-29,0,216
2022-01-30,0,226
2022-01-31,0,227
2022-02-01,1,244
2022-02-02,0,228
2022-02-03,0,229
2022-02-04,0,252
2022-02-05,1,216
2022-02-06,1,211
2022-02-07,1,246
2022-02-08,1,257
2022-02-09,0,244
2022-02-10,1,245
2022-02-11,0,219
2022-02-12,1,227
2022-02-13,0,238
2022-02-14,2,245
2022-02-15,0,232
2022-02-16,3,255
2022-02-17,2,242
2022-02-18,1,257
2022-02-19,0,221
2022-02-20,0,223
2022-02-21,1,248
2022-02-22,0,252
2022-02-23,1,229
2022-02-24,0,237
2022-02-25,0,214
2022-02-26,0,204
2022-02-27,0,216
2022-02-28,0,239
2022-03-01,0,229
2022-03-02,2,248
2022-03-03,0,246
2022-03-04,1,217
2022-03-05,0,218
2022-03-06,0,211
2022-03-07,1,241
2022-03-08,1,246
2022-03-09,0,235
2022-03-10,1,222
2022-03-11,0,207
2022-03-12,1,216
2022-03-13,0,202
2022-03-14,2,235
2022-03-15,0,243
2022-03-16,0,227
2022-03-17,0,221
2022-03-18,1,244
2022-03-19,0,212
2022-03-20,0,202
2022-03-21,1,246
2022-03-22,0,233
2022-03-23,0,218
2022-03-24,1,248
2022-03-25,1,211
2022-03-26,1,209
2022-03-27,0,205
2022-03-28,2,223
2022-03-29,0,243
2022-03-30,1,219
2022-03-31,0,231
2022-04-01,1,238
2022-04-02,0,209
2022-04-03,0,206
2022-04-04,0,228
2022-04-05,0,225
2022-04-06,0,220
2022-04-07,0,216
2022-04-08,0,221
2022-04-09,3,200
2022-04-10,0,189
2022-04-11,1,230
2022-04-12,0,211
2022-04-13,1,206
2022-04-14,0,233
2022-04-15,1,212
2022-04-16,1,198
2022-04-17,0,174
2022-04-18,0,184
2022-04-19,0,229
2022-04-20,0,224
2022-04-21,0,215
2022-04-22,0,226
2022-04-23,1,192
2022-04-24,1,201
2022-04-25,1,219
2022-04-26,0,224
2022-04-27,0,218
2022-04-28,0,219
2022-04-29,0,220
2022-04-30,1,201
2022-05-01,1,205
2022-05-02,0,223
2022-05-03,0,216
2022-05-04,0,240
2022-05-05,0,209
2022-05-06,1,219
2022-05-07,2,198
2022-05-08,1,200
2022-05-09,0,225
2022-05-10,2,227
2022-05-11,0,223
2022-05-12,1,201
2022-05-13,0,225
2022-05-14,1,207
2022-05-15,0,196
2022-05-16,0,245
2022-05-17,0,215
2022-05-18,0,236
2022-05-19,0,210
2022-05-20,0,205
2022-05-21,0,183
2022-05-22,0,202
2022-05-23,2,227
2022-05-24,0,225
2022-05-25,0,203
2022-05-26,1,221
2022-05-27,0,214
2022-05-28,1,190
2022-05-29,0,199
2022-05-30,0,235
2022-05-31,0,215
2022-06-01,1,225
2022-06-02,1,178
2022-06-03,0,212
2022-06-04,1,190
2022-06-05,0,199
2022-06-06,1,201
2022-06-07,0,198
2022-06-08,0,216
2022-06-09,0,204
2022-06-10,0,208
2022-06-11,0,200
2022-06-12,0,181
2022-06-13,2,218
2022-06-14,0,208
2022-06-15,1,209
2022-06-16,1,215
2022-06-17,0,213
2022-06-18,0,187
2022-06-19,1,172
2022-06-20,0,222
2022-06-21,1,206
2022-06-22,1,206
2022-06-23,0,199
2022-06-24,1,203
2022-06-25,0,180
2022-06-26,1,171
2022-06-27,0,213
2022-06-28,0,207
2022-06-29,0,196
2022-06-30,0,217
2022-07-01,0,195
2022-07-02,0,177
2022-07-03,0,173
2022-07-04,0,205
2022-07-05,2,199
2022-07-06,0,201
2022-07-07,0,199
2022-07-08,0,198
2022-07-09,0,175
2022-07-10,0,175
2022-07-11,0,194
2022-07-12,0,183
2022-07-13,0,199
2022-07-14,0,199
2022-07-15,0,196
2022-07-16,2,166
2022-07-17,0,169